Home   Weather   Ahvaz   Past weeks

Flag for Iran Past Weather in Ahvaz, Iran — Yesterday and Last 2 Weeks

97 °F


Feels Like: 94 °F
Forecast: 65 / 94 °F
Wind: 9 mph from South

Location: Ahwaz

Current Time: Oct 26, 2016 at 3:10:27 PM

Latest Report: Oct 26, 2016 at 2:24 PM

Visibility: 4 mi

Pressure: 29.86 "Hg

Humidity: 22%

Dew Point: 52 °F

Location of AhvazLocation

Past Weather in Ahvaz — Graph


Ahvaz Temperature Yesterday

Maximum temperature yesterday: 99 °F (at 2:26 PM)
Minimum temperature yesterday: 63 °F (at 3:22 AM)
Average temperature yesterday: 81 °F

High & Low Weather Summary for the Past Weeks

High102 °F (Oct 11, 2:00 PM)73% (Oct 15, 7:00 AM)29.92 "Hg (Oct 15, 7:00 AM)
Low63 °F (Oct 14, 5:30 AM)7% (Oct 12, 4:30 PM)29.53 "Hg (Oct 24, 2:30 AM)
Average83 °F28%29.83 "Hg
* Reported Oct 11 1:30 PM — Oct 26 1:56 PM, Ahvaz, Weather by CustomWeather, © 2016

Note: Actual official high and low records may vary slightly from our data, if they occured in-between our weather recording intervals... More about our weather records


Ahvaz Weather History for the Previous 24 Hours

Scroll right to see more
Time TempWeatherWind HumidityBarometerVisibility
1:56 PM
Wed, Oct 26
97 °FClear.9 mph22%29.89 "Hg4 mi
1:25 PM97 °FClear.9 mph25%29.89 "Hg4 mi
12:55 PM97 °FClear.12 mph23%29.89 "Hg4 mi
12:24 PM95 °FHaze.12 mph28%29.89 "Hg3 mi
11:56 AM93 °FClear.12 mph32%29.92 "Hg4 mi
11:25 AM91 °FClear.12 mph36%29.92 "Hg4 mi
10:55 AM90 °FClear.9 mph41%29.92 "Hg4 mi
10:23 AM86 °FClear.12 mph49%29.92 "Hg4 mi
9:56 AM84 °FClear.9 mph55%29.92 "Hg4 mi
9:23 AM82 °FClear.7 mph58%29.92 "Hg4 mi
8:55 AM79 °FClear.5 mph54%29.92 "Hg4 mi
8:30 AM75 °FClear.5 mph44%29.89 "Hg4 mi
8:00 AM72 °FClear.5 mph38%29.89 "Hg4 mi
7:30 AM68 °FClear.5 mph38%29.89 "Hg4 mi
7:00 AM68 °FClear.5 mph38%29.86 "Hg4 mi
6:30 AM70 °FClear.5 mph33%29.86 "Hg4 mi
5:30 AM72 °FClear.2 mph33%29.83 "Hg4 mi
4:30 AM70 °FClear.2 mph38%29.83 "Hg4 mi
3:30 AM68 °FClear.2 mph38%29.83 "Hg4 mi
2:30 AM70 °FClear.2 mph35%29.83 "Hg4 mi
1:30 AM72 °FClear.2 mph33%29.83 "Hg4 mi
12:30 AM72 °FClear.2 mph31%29.83 "Hg10 mi
12:00 AM73 °FClear.5 mph27%29.83 "Hg10 mi
11:30 PM
Tue, Oct 25
73 °FClear.5 mph25%29.83 "Hg10 mi
11:00 PM75 °FClear.5 mph22%29.83 "Hg10 mi
10:30 PM73 °FClear.2 mph29%29.83 "Hg10 mi
10:00 PM75 °FClear.2 mph29%29.83 "Hg10 mi
9:30 PM73 °FClear.2 mph33%29.83 "Hg10 mi
9:00 PM73 °FClear.2 mph31%29.83 "Hg10 mi
8:29 PM75 °FClear.2 mph31%29.86 "Hg10 mi
7:58 PM75 °FClear.2 mph31%29.83 "Hg10 mi
7:25 PM77 °FClear.2 mph28%29.83 "Hg10 mi
6:58 PM79 °FClear.2 mph28%29.83 "Hg10 mi
6:28 PM79 °FClear.No wind26%29.83 "Hg10 mi
6:00 PM81 °FSunny.2 mph26%29.80 "Hg10 mi
5:26 PM90 °FSunny.2 mph20%29.80 "Hg10 mi
5:00 PM93 °FSunny.5 mph13%29.80 "Hg10 mi
4:28 PM95 °FSunny.5 mph12%29.80 "Hg10 mi
4:00 PM97 °FSunny.5 mph11%29.80 "Hg10 mi
3:24 PM97 °FClear.2 mph12%29.80 "Hg5 mi
Weather by CustomWeather, © 2016

See weather overviewHow to use our weather pages